Location: Newark
(25.0000°N, 73.5000°E)
Time: 05:35:08
(UTC+00:00)

RS-15 - Pass Details

Date: 28 February 2020
Orbit: 1898 x 2146 km, 64.8° (Epoch: 07 April)

Event Time Altitude Azimuth Distance (km) Brightness Sun altitude
Rises 14:05:40 0° 217° (SW) 5,402 11.0 -14.0°
Reaches altitude 10° 14:09:06 10° 221° (SW) 4,375 10.5 -14.8°
Maximum altitude 14:20:00 59° 298° (WNW) 2,157 8.5 -17.2°
Drops below altitude 10° 14:30:44 10° 17° (NNE) 4,285 9.7 -19.7°
Sets 14:34:05 0° 21° (NNE) 5,286 10.1 -20.4°
